This is the latest recevied weather packets stored in our database for station/object N1ORT. If no packets are shown the sender has not sent any weather packets the latest 10 day(s).
| Time | Temp. | Humidity | Pressure | Rain* | Wind** | Luminosity | Snow |
|---|---|---|---|---|---|---|---|
| 1777827992 | 10.56° C | 56% | 1004 hPa | 0 mm | - | 444 W/m² | - |
| 1777827689 | 10° C | 58% | 1004 hPa | 0 mm | - | 421 W/m² | - |
| 1777827386 | 10° C | 62% | 1004 hPa | 0 mm | - | 384 W/m² | - |
| 1777827082 | 9.44° C | 65% | 1004 hPa | 0 mm | - | 308 W/m² | - |
| 1777826779 | 9.44° C | 63% | 1004 hPa | 0 mm | - | 288 W/m² | - |
| 1777826476 | 9.44° C | 66% | 1004.4 hPa | 0 mm | - | 275 W/m² | - |
| 1777826173 | 8.89° C | 68% | 1004.4 hPa | 0 mm | - | 246 W/m² | - |
| 1777825870 | 8.89° C | 65% | 1004.3 hPa | 0 mm | - | 229 W/m² | - |
| 1777825567 | 8.89° C | 65% | 1004.1 hPa | 0 mm | - | 204 W/m² | - |
| 1777825265 | 8.89° C | 68% | 1004.4 hPa | 0 mm | - | 197 W/m² | - |
| 1777824962 | 8.89° C | 70% | 1004.1 hPa | 0 mm | - | 222 W/m² | - |
| 1777824657 | 8.89° C | 70% | 1004.3 hPa | 0 mm | - | 240 W/m² | - |
| 1777824355 | 8.89° C | 71% | 1004.3 hPa | 0 mm | - | 271 W/m² | - |
| 1777824050 | 8.33° C | 74% | 1004.6 hPa | 0 mm | - | 248 W/m² | - |
| 1777823747 | 8.33° C | 75% | 1004.3 hPa | 0 mm | - | 225 W/m² | - |
| 1777823444 | 7.78° C | 77% | 1004.2 hPa | 0 mm | - | 188 W/m² | - |
| 1777823141 | 7.78° C | 79% | 1004.4 hPa | 0 mm | - | 168 W/m² | - |
| 1777822839 | 7.78° C | 80% | 1004.2 hPa | 0 mm | - | 160 W/m² | - |
| 1777822537 | 7.78° C | 81% | 1004.3 hPa | 0 mm | - | 143 W/m² | - |
| 1777822234 | 7.78° C | 81% | 1004.3 hPa | 0 mm | - | 101 W/m² | - |
| 1777821932 | 7.78° C | 81% | 1004.5 hPa | 0 mm | - | 119 W/m² | - |
| 1777821629 | 7.78° C | 80% | 1004.3 hPa | 0 mm | - | 169 W/m² | - |
| 1777821328 | 7.78° C | 80% | 1004.5 hPa | 0 mm | - | 234 W/m² | - |
| 1777821024 | 7.78° C | 83% | 1004.3 hPa | 0 mm | - | 191 W/m² | - |
| 1777820720 | 7.22° C | 85% | 1004.4 hPa | 0 mm | - | 350 W/m² | - |
* Rain latest hour (hover to see other rain measurements)
** Current wind speed in m/s (hover to see current wind gust speed)